Location: Cluj-Napoca
(46.7712°N, 23.6236°E)
Time: 04:31:05
(UTC+02:00)

XW-2F - Visible Passes

Search period start: 06 December 2021 00:00
Search period end: 16 December 2021 00:00
Orbit: 497 x 514 km, 97.5° (Epoch: 05 December)

Date Brightness Start Highest point End Pass type
(mag) Time Alt. Az. Time Alt. Az. Time Alt. Az.
06 Dec ? 06:56:22 10° N 07:00:08 71° WNW 07:03:53 10° SSW visible
06 Dec ? 17:37:37 10° SSE 17:41:20 76° ENE 17:45:05 10° N visible
07 Dec ? 06:38:34 10° NNE 06:42:21 70° ESE 06:46:06 10° S visible
07 Dec ? 17:20:01 10° SE 17:23:34 46° ENE 17:27:11 10° N visible
07 Dec ? 18:55:37 10° SW 18:57:42 14° W 18:59:49 10° NW visible
08 Dec ? 06:20:54 10° NNE 06:24:31 42° E 06:28:05 10° S visible
08 Dec ? 18:36:47 10° SSW 18:39:45 22° W 18:42:45 10° NW visible
09 Dec ? 06:03:23 10° NE 06:06:37 27° E 06:09:50 10° SSE visible
09 Dec ? 18:18:24 10° SSW 18:21:49 35° W 18:25:18 10° NNW visible
10 Dec ? 05:46:06 10° NE 05:48:40 17° E 05:51:14 10° SE visible
10 Dec ? 07:19:11 10° N 07:22:42 38° WNW 07:26:12 10° SW visible
10 Dec ? 18:00:17 10° S 18:03:57 57° W 18:07:41 10° NNW visible
11 Dec ? 05:29:34 10° ENE 05:30:40 11° E 05:31:47 10° ESE visible
11 Dec ? 07:01:13 10° N 07:04:57 62° WNW 07:08:38 10° SSW visible
11 Dec ? 17:42:23 10° SSE 17:46:07 87° ENE 17:49:54 10° NNW visible
12 Dec ? 06:43:21 10° NNE 06:47:08 80° ESE 06:50:52 10° S visible
12 Dec ? 17:24:41 10° SSE 17:28:19 53° ENE 17:32:00 10° N visible
12 Dec ? 19:00:45 10° WSW 19:02:30 13° W 19:04:16 10° WNW visible
13 Dec ? 06:25:36 10° NNE 06:29:16 48° E 06:32:53 10° S visible
13 Dec ? 17:07:11 10° SE 17:10:33 33° ENE 17:13:58 10° N visible
13 Dec ? 18:41:42 10° SW 18:44:30 20° W 18:47:20 10° NW visible
14 Dec ? 06:08:00 10° NNE 06:11:21 30° E 06:14:40 10° SSE visible
14 Dec ? 18:23:11 10° SSW 18:26:32 31° W 18:29:55 10° NNW visible
15 Dec ? 05:50:36 10° NE 05:53:23 19° E 05:56:08 10° SE visible
15 Dec ? 07:23:54 10° N 07:27:21 34° WNW 07:30:44 10° SW visible
15 Dec ? 18:04:58 10° S 18:08:36 50° W 18:12:18 10° NNW visible
